Regional Weather Roundup
Issued by NWS

Home | Current Version | Previous Version | Text Only | Print | Product List | Glossary On
Versions: 1 2 3 4 5 6 7 8 9 10 11 12 13 14 15 16 17 18 19 20 21 22 23 24 25 26 27 28 29 30 31 32 33 34 35 36 37 38 39 40 41 42 43 44 45 46 47 48 49 50
193
ASUS44 KBMX 250210
RWRAL

ALABAMA REGIONAL WEATHER ROUNDUP
NATIONAL WEATHER SERVICE BIRMINGHAM AL
900 PM CDT SUN JUL 24 2016

NOTE: "FAIR" INDICATES FEW OR NO CLOUDS BELOW 12,000 FEET
WITH NO SIGNIFICANT WEATHER AND/OR OBSTRUCTIONS TO VISIBILITY.

THE REMARK "TC" DENOTES TEMPERATURE IN DEGREES CELSIUS.

ALZ001>011-014-016>018-020-250300-
NORTH ALABAMA

CITY           SKY/WX    TMP DP  RH WIND       PRES   REMARKS
MUSCLE SHOALS  PTCLDY    79  75  87 W5        30.03R
HUNTSVILLE     PTCLDY    81  70  69 W3        30.03R
DECATUR        PTCLDY    77  76  96 CALM      30.03R
HALEYVILLE     FAIR      74  73  97 CALM      30.06R FOG
GADSDEN        CLEAR     80  77  90 N3        30.04R
$$

ALZ012-013-022-023-030>036-040>044-250300-
WEST CENTRAL ALABAMA

CITY           SKY/WX    TMP DP  RH WIND       PRES   REMARKS
TUSCALOOSA     PTCLDY    80  77  90 CALM      29.99R
$$

ALZ015-024>027-033>036-040>044-250300-
CENTRAL ALABAMA

CITY           SKY/WX    TMP DP  RH WIND       PRES   REMARKS
BIRMINGHAM     CLEAR     82  75  79 CALM      30.04R
MONTGOMERY     CLEAR     85  73  67 S3        30.00R HX  91
SHELBY CO ARPT CLEAR     82  73  74 CALM      30.02R
MAXWELL AFB    CLEAR     84  75  74 S2        30.00R HX  92
GREENVILLE     FAIR      83  72  69 SW3       30.02R
$$

ALZ019-021-028-029-037-038-045>048-250300-
EAST CENTRAL ALABAMA

CITY           SKY/WX    TMP DP  RH WIND       PRES   REMARKS
ANNISTON       CLEAR     81  74  79 CALM      30.03R
ALEXANDER CITY PTCLDY    81  77  88 CALM      30.04S
AUBURN         PTCLDY    87  70  56 CALM      30.06R HX  92
$$

ALZ051>064-250300-
SOUTHWEST ALABAMA

CITY           SKY/WX    TMP DP  RH WIND       PRES   REMARKS
MOBILE         CLOUDY    81  73  76 SE5       30.00R
BROOKLEY FIELD MOCLDY    84  78  82 E14       29.99S HX  95
EVERGREEN      CLEAR     77  73  87 CALM      30.01S
$$

ALZ049-050-065>069-250300-
SOUTHEAST ALABAMA

CITY           SKY/WX    TMP DP  RH WIND       PRES   REMARKS
DOTHAN         CLEAR     82  74  76 SW8       30.06R
OZARK          CLEAR     80  74  81 S5        30.01R
TROY           PTCLDY    81  74  79 SW6       30.03R
EUFAULA        FAIR      78  74  87 CALM      30.01R
$$




USA.gov is the U.S. government's official web portal to all federal, state and local government web resources and services.